Location: Bourg-d�Oueil
(42.8588°N, 0.4991°E)
Time: 02:40:43
(UTC+00:00)

ARIANE 5 R/B - Pass Details

Date: 16 June 2021
Orbit: 620 x 656 km, 98.1° (Epoch: 28 July)

Event Time Altitude Azimuth Distance (km) Brightness Sun altitude
Exits shadow 21:43:40 22° 190° (S) 1,380 3.9 -16.8°
Maximum altitude 21:46:18 55° 260° (W) 778 3.1 -17.1°
Drops below altitude 10° 21:50:42 10° 338° (NNW) 2,056 6.5 -17.5°
Sets 21:52:59 0° 343° (NNW) 2,977 7.6 -17.7°
